TimeCST,TemperatureF,Dew PointF,Humidity,Sea Level PressureIn,VisibilityMPH,Wind Direction,Wind SpeedMPH,Gust SpeedMPH,PrecipitationIn,Events,Conditions,WindDirDegrees,DateUTC
12:03 AM,12.2,10.4,92,29.18,1.2,Calm,Calm,-,N/A,Snow,Light Snow,0,2014-01-16 06:03:00
12:23 AM,12.2,10.4,92,29.18,2.0,Calm,Calm,-,N/A,Snow,Light Snow,0,2014-01-16 06:23:00
12:43 AM,14.0,12.2,93,29.17,1.2,South,4.6,-,N/A,Snow,Light Snow,170,2014-01-16 06:43:00
1:03 AM,15.8,12.2,86,29.17,2.5,SSE,3.5,-,N/A,Snow,Light Snow,150,2014-01-16 07:03:00
1:23 AM,15.8,12.2,86,29.17,1.0,South,3.5,-,N/A,Snow,Light Snow,170,2014-01-16 07:23:00
1:43 AM,15.8,14.0,93,29.17,1.2,SSE,3.5,-,N/A,Snow,Light Snow,160,2014-01-16 07:43:00
2:03 AM,17.6,15.8,93,29.17,1.2,Calm,Calm,-,N/A,Snow,Light Snow,0,2014-01-16 08:03:00
2:23 AM,17.6,15.8,93,29.16,1.5,Calm,Calm,-,N/A,Snow,Light Snow,0,2014-01-16 08:23:00
2:43 AM,19.4,17.6,93,29.17,2.0,Calm,Calm,-,N/A,Snow,Light Snow,0,2014-01-16 08:43:00
3:03 AM,19.4,17.6,93,29.16,3.0,Calm,Calm,-,N/A,Snow,Light Snow,0,2014-01-16 09:03:00
3:23 AM,19.4,17.6,93,29.17,1.5,South,3.5,-,N/A,Snow,Light Snow,170,2014-01-16 09:23:00
3:43 AM,21.2,19.4,93,29.17,3.0,Calm,Calm,-,N/A,Snow,Light Snow,0,2014-01-16 09:43:00
4:03 AM,21.2,21.2,100,29.17,3.0,Calm,Calm,-,N/A,Snow,Light Snow,0,2014-01-16 10:03:00
4:23 AM,21.2,19.4,93,29.18,1.0,Calm,Calm,-,N/A,Snow,Light Snow,0,2014-01-16 10:23:00
4:43 AM,21.2,19.4,93,29.18,0.8,Calm,Calm,-,N/A,Snow,Light Snow,0,2014-01-16 10:43:00
5:03 AM,23.0,21.2,93,29.19,10.0,Calm,Calm,-,N/A,,Overcast,0,2014-01-16 11:03:00
5:23 AM,24.8,21.2,86,29.22,10.0,NW,8.1,20.7,N/A,,Overcast,310,2014-01-16 11:23:00
5:43 AM,21.2,17.6,86,29.26,7.0,West,9.2,19.6,N/A,,Overcast,270,2014-01-16 11:43:00
6:03 AM,17.6,14.0,86,29.27,5.0,WNW,6.9,16.1,N/A,Snow,Light Snow,300,2014-01-16 12:03:00
6:23 AM,15.8,10.4,79,29.30,2.0,West,6.9,18.4,N/A,Snow,Light Snow,280,2014-01-16 12:23:00
6:43 AM,12.2,8.6,85,29.32,1.2,NW,10.4,21.9,N/A,Snow,Light Snow,310,2014-01-16 12:43:00
7:03 AM,10.4,6.8,85,29.34,1.0,WNW,9.2,19.6,N/A,Snow,Light Snow,300,2014-01-16 13:03:00
7:23 AM,10.4,6.8,85,29.36,1.0,WNW,5.8,-,N/A,Snow,Light Snow,300,2014-01-16 13:23:00
7:43 AM,8.6,6.8,92,29.37,0.8,NW,3.5,-,N/A,Snow,Light Snow,320,2014-01-16 13:43:00
8:03 AM,8.6,5.0,85,29.39,1.2,WNW,6.9,-,N/A,Snow,Light Snow,290,2014-01-16 14:03:00
8:23 AM,8.6,3.2,79,29.40,2.5,NW,8.1,-,N/A,Snow,Light Snow,310,2014-01-16 14:23:00
8:43 AM,6.8,3.2,85,29.42,1.5,West,5.8,16.1,N/A,Snow,Light Snow,280,2014-01-16 14:43:00
9:03 AM,6.8,3.2,85,29.43,1.2,NW,6.9,-,N/A,Snow,Light Snow,320,2014-01-16 15:03:00
9:23 AM,6.8,1.4,79,29.45,2.0,NW,4.6,18.4,N/A,Snow,Light Snow,310,2014-01-16 15:23:00
9:43 AM,6.8,3.2,85,29.46,3.0,NW,8.1,-,N/A,Snow,Light Snow,320,2014-01-16 15:43:00
10:03 AM,6.8,1.4,79,29.48,2.0,WNW,6.9,24.2,N/A,Snow,Light Snow,300,2014-01-16 16:03:00
10:23 AM,6.8,1.4,79,29.48,2.0,NW,4.6,-,N/A,Snow,Light Snow,310,2014-01-16 16:23:00
10:43 AM,6.8,1.4,79,29.49,4.0,WNW,5.8,-,N/A,Snow,Light Snow,300,2014-01-16 16:43:00
11:03 AM,6.8,1.4,79,29.49,4.0,NW,6.9,-,N/A,Snow,Light Snow,310,2014-01-16 17:03:00
11:23 AM,6.8,1.4,79,29.50,3.0,NW,4.6,-,N/A,Snow,Light Snow,320,2014-01-16 17:23:00
11:43 AM,6.8,3.2,85,29.50,2.5,WNW,5.8,-,N/A,Snow,Light Snow,290,2014-01-16 17:43:00
12:03 PM,6.8,3.2,85,29.51,4.0,NW,6.9,-,N/A,Snow,Light Snow,320,2014-01-16 18:03:00
12:23 PM,8.6,3.2,79,29.52,1.2,NW,6.9,-,N/A,Snow,Light Snow,310,2014-01-16 18:23:00
12:43 PM,8.6,3.2,79,29.53,0.8,NW,3.5,-,N/A,Snow,Light Snow,320,2014-01-16 18:43:00
1:03 PM,8.6,5.0,85,29.53,3.0,NW,6.9,-,N/A,Snow,Light Snow,320,2014-01-16 19:03:00
1:23 PM,10.4,6.8,85,29.54,3.0,NNW,6.9,17.3,N/A,Snow,Light Snow,330,2014-01-16 19:23:00
1:43 PM,10.4,6.8,85,29.56,2.5,NNW,10.4,17.3,0.01,Snow,Light Snow,330,2014-01-16 19:43:00
2:03 PM,10.4,6.8,85,29.58,2.5,NW,13.8,19.6,N/A,Snow,Light Snow,320,2014-01-16 20:03:00
2:23 PM,10.4,6.8,85,29.59,3.0,NNW,9.2,16.1,N/A,Snow,Light Snow,330,2014-01-16 20:23:00
2:43 PM,8.6,5.0,85,29.61,4.0,NNW,15.0,20.7,N/A,,Overcast,330,2014-01-16 20:43:00
3:03 PM,8.6,5.0,85,29.63,4.0,NNW,15.0,21.9,N/A,Snow,Light Snow,340,2014-01-16 21:03:00
3:23 PM,8.6,5.0,85,29.65,4.0,NNW,11.5,16.1,N/A,Snow,Light Snow,340,2014-01-16 21:23:00
3:43 PM,8.6,5.0,85,29.67,3.0,NNW,15.0,20.7,N/A,Snow,Light Snow,330,2014-01-16 21:43:00
4:03 PM,8.6,3.2,79,29.68,3.0,NNW,10.4,18.4,N/A,Snow,Light Snow,340,2014-01-16 22:03:00
4:23 PM,8.6,3.2,79,29.70,5.0,NNW,11.5,19.6,N/A,Snow,Light Snow,340,2014-01-16 22:23:00
4:43 PM,8.6,3.2,79,29.72,5.0,NNW,13.8,18.4,N/A,Snow,Light Snow,330,2014-01-16 22:43:00
5:03 PM,8.6,3.2,79,29.74,7.0,NNW,10.4,18.4,N/A,Snow,Light Snow,330,2014-01-16 23:03:00
5:23 PM,8.6,3.2,79,29.75,7.0,NNW,9.2,-,N/A,Snow,Light Snow,330,2014-01-16 23:23:00
5:43 PM,6.8,3.2,85,29.77,5.0,NNW,10.4,18.4,N/A,Snow,Light Snow,340,2014-01-16 23:43:00
6:03 PM,6.8,3.2,85,29.78,4.0,NNW,9.2,19.6,N/A,Snow,Light Snow,340,2014-01-17 00:03:00
6:23 PM,6.8,3.2,85,29.79,2.5,NNW,8.1,-,N/A,Snow,Light Snow,340,2014-01-17 00:23:00
6:43 PM,6.8,3.2,85,29.80,1.5,NNW,8.1,17.3,N/A,Snow,Light Snow,340,2014-01-17 00:43:00
7:03 PM,6.8,3.2,85,29.81,2.5,NNW,8.1,-,N/A,Snow,Light Snow,340,2014-01-17 01:03:00
7:23 PM,6.8,3.2,85,29.83,2.5,NNW,8.1,-,N/A,Snow,Light Snow,340,2014-01-17 01:23:00
7:43 PM,6.8,3.2,85,29.84,3.0,North,9.2,-,N/A,Snow,Light Snow,350,2014-01-17 01:43:00
8:03 PM,6.8,3.2,85,29.84,5.0,NNW,8.1,-,N/A,Snow,Light Snow,340,2014-01-17 02:03:00
8:23 PM,6.8,3.2,85,29.86,7.0,NNW,6.9,-,N/A,Snow,Light Snow,340,2014-01-17 02:23:00
8:43 PM,6.8,1.4,79,29.87,5.0,NNW,6.9,16.1,N/A,Snow,Light Snow,340,2014-01-17 02:43:00
9:03 PM,6.8,1.4,79,29.88,4.0,NNW,6.9,16.1,N/A,Snow,Light Snow,340,2014-01-17 03:03:00
9:23 PM,6.8,1.4,79,29.89,4.0,North,8.1,-,N/A,Snow,Light Snow,350,2014-01-17 03:23:00
9:43 PM,6.8,1.4,79,29.90,4.0,North,5.8,-,N/A,Snow,Light Snow,350,2014-01-17 03:43:00
10:03 PM,5.0,1.4,85,29.90,7.0,NNW,5.8,-,N/A,Snow,Light Snow,330,2014-01-17 04:03:00
10:23 PM,5.0,1.4,85,29.91,7.0,NNW,6.9,-,N/A,Snow,Light Snow,340,2014-01-17 04:23:00
10:43 PM,5.0,1.4,85,29.91,10.0,North,6.9,-,N/A,,Overcast,350,2014-01-17 04:43:00
11:03 PM,5.0,1.4,85,29.92,10.0,NNW,4.6,-,N/A,,Overcast,340,2014-01-17 05:03:00
11:23 PM,5.0,1.4,85,29.92,5.0,NNW,6.9,-,N/A,Snow,Light Snow,330,2014-01-17 05:23:00
11:43 PM,5.0,1.4,85,29.92,7.0,NNW,3.5,-,N/A,,Overcast,340,2014-01-17 05:43:00